Regional Weather Roundup
Issued by NWS

Home | Current Version | Previous Version | Text Only | Print | Product List | Glossary Off
Versions: 1 2 3 4 5 6 7 8 9 10 11 12 13 14 15 16 17 18 19 20 21 22 23 24 25 26 27 28 29 30 31 32 33 34 35 36 37 38 39 40 41 42 43 44 45 46 47 48 49 50

052
ASUS43 KMKX 221759
RWRWI

WISCONSIN REGIONAL WEATHER ROUNDUP
NATIONAL WEATHER SERVICE MILWAUKEE/SULLIVAN WI
100 PM CDT SUN APR 22 2018

NOTE: "FAIR" INDICATES FEW OR NO CLOUDS BELOW 12,000 FEET WITH NO
SIGNIFICANT WEATHER AND/OR OBSTRUCTIONS TO VISIBILITY.

WIZ001-002-006>008-014>016-023>028-221900-
NORTHWEST WISCONSIN

CITY           SKY/WX    TMP DP  RH WIND       PRES   REMARKS
SUPERIOR ARPT  FAIR      57  29  35 NE5       30.33F
6HR MIN TEMP:  25; 6HR MAX TEMP:  57;

ASHLAND        FAIR      58  24  27 S7        30.33F
6HR MIN TEMP:  30; 6HR MAX TEMP:  59;

HAYWARD        FAIR      58  28  32 S9        30.34F
6HR MIN TEMP:  27; 6HR MAX TEMP:  58;

SIREN          FAIR      60  29  31 S6        30.35S
CUMBERLAND     FAIR      52  28  40 CALM      30.36F
RICE LAKE      FAIR      56  30  37 S6        30.37F
CHETEK         FAIR      56  32  38 CALM      30.36F
LADYSMITH      FAIR      58  31  35 SW7       30.37F
6HR MIN TEMP:  31; 6HR MAX TEMP:  58;

EAU CLAIRE     NOT AVBL
MENOMONIE      FAIR      60  30  32 E6        30.35F
6HR MIN TEMP:  32; 6HR MAX TEMP:  60;

NEW RICHMOND   FAIR      58  32  37 SE8       30.35F
OSCEOLA        FAIR      58  33  38 SE3       30.38F
$$

WIZ003>005-009-010-017-018-221900-
NORTH CENTRAL WISCONSIN

CITY           SKY/WX    TMP DP  RH WIND       PRES   REMARKS
MANITOWISH WTR FAIR      53  22  29 S3        30.35S
ARBOR VITAE    FAIR      57  21  25 CALM      30.34F
WOODRUFF       FAIR      57  21  25 CALM      30.34F
RHINELANDER    FAIR      58  21  24 W5        30.34F
6HR MIN TEMP:  28; 6HR MAX TEMP:  58;

EAGLE RIVER    FAIR      57  11  16 SW8G16    30.34F
6HR MIN TEMP:  24; 6HR MAX TEMP:  58;

LAND O LAKES   FAIR      59  10  14 SW7       30.34F
6HR MIN TEMP:  23; 6HR MAX TEMP:  59;

PHILLIPS       FAIR      56  28  33 S5        30.34F
6HR MIN TEMP:  25; 6HR MAX TEMP:  56;

TOMAHAWK       FAIR      55  21  25 CALM      30.36F
MEDFORD        FAIR      53  28  38 SE6       30.37S
MERRILL          N/A     58  29  32 S7        30.37F
6HR MIN TEMP:  26; 6HR MAX TEMP:  58;

$$

WIZ029-030-035-036-043>047-221900-
CENTRAL WISCONSIN

CITY           SKY/WX    TMP DP  RH WIND       PRES   REMARKS
WAUSAU         FAIR      57  26  30 W6        30.35F
6HR MIN TEMP:  28; 6HR MAX TEMP:  58;

MOSINEE        MOSUNNY   55  27  33 CALM      30.38F
MARSHFIELD     FAIR      54  30  40 SE8       30.36F
6HR MIN TEMP:  31; 6HR MAX TEMP:  54;

STEVENS POINT  FAIR      52  28  39 E7        30.38F
WAUPACA        FAIR      59  17  19 CALM      30.38F
6HR MIN TEMP:  31; 6HR MAX TEMP:  59;

WAUTOMA        FAIR      56  19  23 E9        30.37F
6HR MIN TEMP:  31; 6HR MAX TEMP:  56;

WISC RAPIDS    FAIR      57  28  33 E8        30.37F
6HR MIN TEMP:  29; 6HR MAX TEMP:  57;

CAMP DOUGLAS   NOT AVBL
$$

WIZ011>013-019>022-031-037>040-048>050-221900-
NORTHEAST WISCONSIN

CITY           SKY/WX    TMP DP  RH WIND       PRES   REMARKS
ANTIGO         FAIR      54  33  45 S8        30.37F
SHAWANO        FAIR      57  21  25 SE5       30.39F
6HR MIN TEMP:  31; 6HR MAX TEMP:  58;

OCONTO         FAIR      54  18  24 S6        30.40F
STURGEON BAY   FAIR      54  20  26 S7        30.40F
6HR MIN TEMP:  39; 6HR MAX TEMP:  54;

GREEN BAY      FAIR      56  22  26 S3        30.39F
6HR MIN TEMP:  32; 6HR MAX TEMP:  57;

MANITOWOC      FAIR      52  23  32 SE6       30.40F
6HR MIN TEMP:  33; 6HR MAX TEMP:  52;

APPLETON       MOSUNNY   55  12  18 S6        30.38F
CLINTONVILLE   FAIR      55  17  23 CALM      30.39F
6HR MIN TEMP:  28; 6HR MAX TEMP:  55;

OSHKOSH        FAIR      55  26  32 NE6       30.38F
6HR MIN TEMP:  33; 6HR MAX TEMP:  55;

$$

WIZ032>034-041-042-053>061-221900-
SOUTHWEST WISCONSIN

CITY           SKY/WX    TMP DP  RH WIND       PRES   REMARKS
LA CROSSE      FAIR      61  27  27 E12       30.33F
6HR MIN TEMP:  36; 6HR MAX TEMP:  61;

SPARTA         FAIR      59  29  31 E10       30.36F
VIROQUA        FAIR      57  34  41 NE10      30.34S
6HR MIN TEMP:  38; 6HR MAX TEMP:  57;

BOSCOBEL       FAIR      64  25  22 NE8       30.32F
6HR MIN TEMP:  40; 6HR MAX TEMP:  65;

PRAIRIE DU CHI FAIR      61  15  16 E12       30.31F
PLATTEVILLE    FAIR      59  30  33 E9G18     30.32F
$$

WIZ056-057-062-063-064-067-068-221900-
SOUTH CENTRAL WISCONSIN

CITY           SKY/WX    TMP DP  RH WIND       PRES   REMARKS
REEDSBURG      FAIR      58  24  27 E8        30.34F
6HR MIN TEMP:  32; 6HR MAX TEMP:  58;

BARABOO/DELLS  FAIR      56  20  24 NE6       30.34F
LONE ROCK      FAIR      61  23  23 E8        30.33F
6HR MIN TEMP:  37; 6HR MAX TEMP:  62;

MINERAL POINT  FAIR      61  27  27 E8        30.32F
MADISON        PTSUNNY   59  28  30 SE7       30.34F
6HR MIN TEMP:  35; 6HR MAX TEMP:  59;

MIDDLETON      FAIR      58  24  26 SE10      30.35S
WATERTOWN      FAIR      55  27  34 E6        30.35F
MONROE         FAIR      59  27  29 E9        30.31F
JANESVILLE     MOSUNNY   63  27  25 E12G17    30.33F
$$

WIZ051-052-058>065-066-070>072-221900-
SOUTHEAST WISCONSIN

CITY           SKY/WX    TMP DP  RH WIND       PRES   REMARKS
MILWAUKEE      PTSUNNY   51  29  42 E5        30.38F
6HR MIN TEMP:  36; 6HR MAX TEMP:  51;

WAUKESHA       SUNNY     54  27  35 E14       30.37F
MILWAUKEE/TIMM SUNNY     52  16  24 E7        30.37F
RACINE         FAIR      53  29  39 VRB7      30.38F
6HR MIN TEMP:  38; 6HR MAX TEMP:  54;

BURLINGTON     FAIR      59  28  30 E13       30.35S
KENOSHA        FAIR      57  26  30 E12       30.36F
6HR MIN TEMP:  40; 6HR MAX TEMP:  57;

FOND DU LAC    FAIR      56  21  25 CALM      30.36F
6HR MIN TEMP:  32; 6HR MAX TEMP:  56; 6HR PCP: TRACE;

SHEBOYGAN      FAIR      55  30  38 E8        30.38F
6HR MIN TEMP:  31; 6HR MAX TEMP:  57;

WEST BEND      FAIR      57  21  24 E9        30.37F
JUNEAU         FAIR      55  27  34 E5        30.37F
$$

LSZ147-162-221900-
LAKE SUPERIOR

STATION/POSITION TIME  TEMP    WIND        PRES    WAVE
                       AIR SEA DIR/SP/G            HT/PER
                 (UTC) (F)     (DEG/KT/KT) (MB)    (FT/S)
DEVILS ISLAND    1700   37     360/  3/  4 1029.0F
SAXON HARBOR     1740   41     340/  2/  3 1027.1F
$$

LMZ867-665-643>646-221900-
LAKE MICHIGAN

STATION/POSITION TIME  TEMP    WIND        PRES    WAVE
                       AIR SEA DIR/SP/G            HT/PER
                 (UTC) (F)     (DEG/KT/KT) (MB)    (FT/S)
NORTHPORT PIER   1740   42                 1029.5F
KEWAUNEE LAKESHO 1730   47      80/  2/  3 1029.0F
SHEBOYGAN LAKESH 1700   39      10/  4/  5 1030.0F
PORT WASHINGTON  1730   45      40/  6/  7 1030.1F
MILWAUKEE LAKESH 1730   40      30/  7/  7   N/A
KENOSHA   LAKESH 1700   39                 1028.4
$$

TC  - TEMPERATURE IN CELSIUS
VSB - VISIBILITY IN STATUTE MILES
WCI - WIND CHILL INDEX
HX  - HEAT INDEX





USA.gov is the U.S. government's official web portal to all federal, state and local government web resources and services.